Ilopango International Airport
MSSS : now visible

Airfield :











YOU CAN JOIN US ON...

 
LOGIN :

Register | Disclaimer

   EN    FR    IT 

 









Legend :    VFR   Marginal VFR   IFR   Intensive IFR   Very Intensive IFR
Visi :
Ceiling :
>= 8 km
>= 3000ft
5 to 8 km
1000 to 3000 ft
1500m to 5 km
500 to 1000 ft
800 to 1500m
200 to 500 ft
< 800m
< 200 ft
Symbols :   Thunderstorms  Fog  Heavy snow  Heavy precipitations  Wind > 20 kt






- Airport Elevation : 2021 ft


MSSS - Ilopango International

CURRENT METAR :
  • 282050Z 18010KT 9999 SCT033 FEW033CB 28/22 Q1014 A2995

EXPIRED METARs :
  • 281950Z 16009KT 9999 FEW033 FEW033CB SCT040 29/22 Q1014 A2996
  • 281850Z 10008KT 9999 FEW030 30/19 Q1015 A2998

TAF TAF MSSS
Valid from the 28 at 18:00 until the 29 at 18:00 UTC


281525Z 2818/2918 33004KT 9999 SCT023 SCT070 TX29/2821Z TN22/2911Z
FM290100 10004KT FEW020 SCT065
TEMPO 2906/2912 34003KT
FM291200 FEW023
MHTG FIR / North America



MET'MAP, your aeronautical weather chart ! - Copyright ORBIFLY December 2007 - Disclaimer

ORBIFLY MET'MAP TEAM :

Programming & Development : Alexandra Zaïnal
Concept & original design : Baudouin d'Aumeries
Assistance for programming : Marc-Olivier Méhu
Technical & hardware support : Manuel Goepfert

Contact : metmap@orbifly.com




SOURCES & CREDITS :

   NOAA       Earth
Advisory